When you browse on this site, cookies collect data to enhance your experience and personalize the content and advertising you see.
Visit our Privacy Policy to learn more. By continuing to use the site, you agree to this use of cookies and data.
EN

Hourly Weather Tirana

Today, 11 July, Saturday

Time Temperature Precipitation Wind Pressure Humidity
00:00 +24°C° 0 mm 1 mps 753 mmHg 61%
01:00 +24°C° 0 mm 1 mps 753 mmHg 65%
02:00 +24°C° 0 mm 1 mps 753 mmHg 65%
03:00 +24°C° 0 mm 1 mps 753 mmHg 65%
04:00 +24°C° 0 mm 1 mps 753 mmHg 66%
05:00 +26°C° 0 mm 1 mps 753 mmHg 61%
06:00 +25°C° 0 mm 0 mps 753 mmHg 55%
07:00 +27°C° 0 mm 0 mps 753 mmHg 49%
08:00 +31°C° 0 mm 1 mps 753 mmHg 45%
09:00 +32°C° 0 mm 2 mps 753 mmHg 42%
10:00 +35°C° 0 mm 2 mps 752 mmHg 38%
11:00 +35°C° 0 mm 3 mps 752 mmHg 37%
12:00 +36°C° 0 mm 4 mps 752 mmHg 36%
13:00 +36°C° 0 mm 4 mps 752 mmHg 34%
14:00 +35°C° 0 mm 4 mps 752 mmHg 35%
15:00 +35°C° 0 mm 4 mps 751 mmHg 36%
16:00 +34°C° 0 mm 4 mps 751 mmHg 36%
17:00 +31°C° 0 mm 3 mps 751 mmHg 42%
18:00 +30°C° 0 mm 3 mps 751 mmHg 48%
19:00 +28°C° 0 mm 2 mps 751 mmHg 53%
20:00 +27°C° 0 mm 1 mps 751 mmHg 55%
21:00 +26°C° 0 mm 1 mps 752 mmHg 57%
22:00 +23°C° 0 mm 0 mps 752 mmHg 59%
23:00 +25°C° 0 mm 1 mps 752 mmHg 61%

Tomorrow, 12 July, Sunday

Time Temperature Precipitation Wind Pressure Humidity
00:00 +24°C° 0 mm 1 mps 751 mmHg 62%
01:00 +24°C° 0 mm 1 mps 751 mmHg 63%
02:00 +23°C° 0 mm 1 mps 751 mmHg 64%
03:00 +23°C° 0 mm 1 mps 751 mmHg 64%
04:00 +23°C° 0 mm 1 mps 751 mmHg 64%
05:00 +25°C° 0 mm 1 mps 752 mmHg 59%
06:00 +27°C° 0 mm 1 mps 752 mmHg 54%
07:00 +29°C° 0 mm 1 mps 752 mmHg 48%
08:00 +31°C° 0 mm 1 mps 752 mmHg 44%
09:00 +34°C° 0 mm 2 mps 752 mmHg 40%
10:00 +36°C° 0 mm 3 mps 753 mmHg 36%
11:00 +36°C° 0 mm 4 mps 752 mmHg 36%
12:00 +36°C° 0 mm 5 mps 752 mmHg 35%
13:00 +38°C° 0 mm 6 mps 752 mmHg 35%
14:00 +36°C° 0 mm 6 mps 752 mmHg 38%
15:00 +35°C° 0 mm 7 mps 752 mmHg 40%
16:00 +34°C° 0 mm 7 mps 752 mmHg 43%
17:00 +33°C° 0 mm 7 mps 752 mmHg 49%
18:00 +30°C° 0 mm 7 mps 752 mmHg 55%
19:00 +28°C° 0 mm 7 mps 753 mmHg 61%
20:00 +27°C° 0 mm 6 mps 753 mmHg 66%
21:00 +26°C° 0 mm 5 mps 753 mmHg 70%
22:00 +25°C° 0 mm 4 mps 753 mmHg 74%
23:00 +23°C° 0 mm 4 mps 753 mmHg 75%

Day after tomorrow, 13 July, Monday

Time Temperature Precipitation Wind Pressure Humidity
00:00 +23°C° 0 mm 4 mps 753 mmHg 76%
01:00 +22°C° 0 mm 3 mps 753 mmHg 77%
02:00 +22°C° 0 mm 4 mps 753 mmHg 77%
03:00 +21°C° 0 mm 4 mps 753 mmHg 77%
04:00 +21°C° 0 mm 4 mps 753 mmHg 77%
05:00 +22°C° 0 mm 4 mps 753 mmHg 70%
06:00 +25°C° 0 mm 5 mps 753 mmHg 62%
07:00 +26°C° 0 mm 5 mps 753 mmHg 55%
08:00 +28°C° 0 mm 5 mps 753 mmHg 51%
09:00 +30°C° 0 mm 6 mps 753 mmHg 46%
10:00 +32°C° 0 mm 6 mps 753 mmHg 41%
11:00 +33°C° 0 mm 6 mps 753 mmHg 39%
12:00 +34°C° 0 mm 7 mps 753 mmHg 36%
13:00 +35°C° 0 mm 7 mps 752 mmHg 34%
14:00 +35°C° 0 mm 8 mps 752 mmHg 33%
15:00 +34°C° 0 mm 8 mps 752 mmHg 32%
16:00 +34°C° 0 mm 9 mps 751 mmHg 32%
17:00 +32°C° 0 mm 8 mps 751 mmHg 36%
18:00 +29°C° 0 mm 8 mps 751 mmHg 40%
19:00 +27°C° 0 mm 7 mps 751 mmHg 44%
20:00 +26°C° 0 mm 6 mps 751 mmHg 46%
21:00 +23°C° 0 mm 5 mps 752 mmHg 47%
22:00 +22°C° 0 mm 4 mps 752 mmHg 48%
23:00 +21°C° 0 mm 4 mps 752 mmHg 49%

14 July, Tuesday

Time Temperature Precipitation Wind Pressure Humidity
00:00 +21°C° 0 mm 4 mps 752 mmHg 49%
01:00 +20°C° 0 mm 4 mps 752 mmHg 49%
02:00 +20°C° 0 mm 4 mps 752 mmHg 49%
03:00 +19°C° 0 mm 4 mps 752 mmHg 50%
04:00 +19°C° 0 mm 4 mps 751 mmHg 50%
05:00 +21°C° 0 mm 4 mps 752 mmHg 47%
06:00 +23°C° 0 mm 4 mps 752 mmHg 43%
07:00 +25°C° 0 mm 3 mps 752 mmHg 40%
08:00 +27°C° 0 mm 3 mps 752 mmHg 37%
09:00 +29°C° 0 mm 3 mps 752 mmHg 35%
10:00 +31°C° 0 mm 2 mps 752 mmHg 32%
11:00 +31°C° 0 mm 2 mps 752 mmHg 33%
12:00 +31°C° 0 mm 3 mps 752 mmHg 34%
13:00 +31°C° 0 mm 3 mps 752 mmHg 35%
14:00 +31°C° 0 mm 3 mps 751 mmHg 35%
15:00 +32°C° 0 mm 4 mps 751 mmHg 36%
16:00 +32°C° 0 mm 4 mps 751 mmHg 37%
17:00 +29°C° 0 mm 4 mps 751 mmHg 42%
18:00 +27°C° 0 mm 3 mps 751 mmHg 48%
19:00 +25°C° 0 mm 3 mps 751 mmHg 54%
20:00 +24°C° 0 mm 2 mps 752 mmHg 57%
21:00 +23°C° 0 mm 2 mps 752 mmHg 59%
22:00 +21°C° 0 mm 2 mps 752 mmHg 62%
23:00 +22°C° 0 mm 1 mps 752 mmHg 63%

15 July, Wednesday

Time Temperature Precipitation Wind Pressure Humidity
00:00 +22°C° 0 mm 1 mps 752 mmHg 64%
01:00 +22°C° 0 mm 1 mps 752 mmHg 65%
02:00 +22°C° 0 mm 1 mps 752 mmHg 66%
03:00 +21°C° 0 mm 1 mps 752 mmHg 67%
04:00 +21°C° 0 mm 1 mps 752 mmHg 68%
05:00 +23°C° 0 mm 1 mps 752 mmHg 62%
06:00 +25°C° 0 mm 1 mps 752 mmHg 56%
07:00 +27°C° 0 mm 1 mps 753 mmHg 50%
08:00 +29°C° 0 mm 1 mps 753 mmHg 45%
09:00 +30°C° 0 mm 2 mps 753 mmHg 39%
10:00 +32°C° 0 mm 2 mps 753 mmHg 34%
11:00 +33°C° 0 mm 3 mps 753 mmHg 32%
12:00 +34°C° 0 mm 3 mps 752 mmHg 30%
13:00 +34°C° 0 mm 4 mps 752 mmHg 27%
14:00 +34°C° 0 mm 4 mps 752 mmHg 28%
15:00 +33°C° 0 mm 4 mps 752 mmHg 28%
16:00 +33°C° 0 mm 4 mps 752 mmHg 28%
17:00 +30°C° 0 mm 3 mps 752 mmHg 33%
18:00 +28°C° 0 mm 2 mps 752 mmHg 38%
19:00 +26°C° 0 mm 1 mps 752 mmHg 43%
20:00 +25°C° 0 mm 1 mps 752 mmHg 44%
21:00 +24°C° 0 mm 1 mps 753 mmHg 46%
22:00 +21°C° 0 mm 0 mps 753 mmHg 48%
23:00 +22°C° 0 mm 1 mps 753 mmHg 48%

16 July, Thursday

Time Temperature Precipitation Wind Pressure Humidity
00:00 +22°C° 0 mm 1 mps 753 mmHg 49%
01:00 +22°C° 0 mm 1 mps 753 mmHg 50%
02:00 +22°C° 0 mm 1 mps 752 mmHg 50%
03:00 +21°C° 0 mm 1 mps 752 mmHg 50%
04:00 +20°C° 0 mm 2 mps 752 mmHg 49%
05:00 +23°C° 0 mm 1 mps 752 mmHg 45%
06:00 +25°C° 0 mm 1 mps 752 mmHg 41%
07:00 +28°C° 0 mm 1 mps 752 mmHg 36%
08:00 +29°C° 0 mm 1 mps 752 mmHg 34%
09:00 +31°C° 0 mm 2 mps 752 mmHg 31%
10:00 +34°C° 0 mm 3 mps 752 mmHg 29%
11:00 +34°C° 0 mm 4 mps 752 mmHg 28%
12:00 +34°C° 0 mm 4 mps 751 mmHg 28%
13:00 +35°C° 0 mm 5 mps 751 mmHg 28%
14:00 +34°C° 0 mm 5 mps 751 mmHg 30%
15:00 +33°C° 0 mm 5 mps 751 mmHg 32%
16:00 +33°C° 0 mm 5 mps 750 mmHg 35%
17:00 +30°C° 0 mm 4 mps 750 mmHg 42%
18:00 +28°C° 0 mm 4 mps 750 mmHg 49%
19:00 +25°C° 0 mm 3 mps 750 mmHg 56%
20:00 +24°C° 0 mm 2 mps 751 mmHg 59%
21:00 +23°C° 0 mm 2 mps 751 mmHg 63%
22:00 +21°C° 0 mm 2 mps 751 mmHg 67%
23:00 +22°C° 0 mm 1 mps 751 mmHg 67%
Show more